When you browse on this site, cookies collect data to enhance your experience and personalize the content and advertising you see.
Visit our Privacy Policy to learn more. By continuing to use the site, you agree to this use of cookies and data.
  • In Lithuania
  • List of Countries
  • For 7 days
  • Water Temperature
  • Satellite Maps
  • Weather Map
  • Weather Widgets
  • user-avatar
    Login

    Hourly Weather Moiseevka

    Today, 26 May, Sunday

    Time Temperature Precipitation Wind Pressure Humidity
    00:00 +15°C° 0 mm 4 mps 737 mmHg 53%
    01:00 +14°C° 0 mm 4 mps 736 mmHg 53%
    02:00 +14°C° 0 mm 4 mps 736 mmHg 53%
    03:00 +14°C° 0 mm 4 mps 735 mmHg 53%
    04:00 +14°C° 0 mm 4 mps 735 mmHg 54%
    05:00 +14°C° 0 mm 4 mps 734 mmHg 54%
    06:00 +15°C° 0 mm 5 mps 734 mmHg 52%
    07:00 +16°C° 0 mm 6 mps 734 mmHg 51%
    08:00 +17°C° 0 mm 7 mps 734 mmHg 49%
    09:00 +18°C° 0 mm 8 mps 735 mmHg 47%
    10:00 +16°C° 0.1 mm 8 mps 736 mmHg 54%
    11:00 +13°C° 0.1 mm 8 mps 737 mmHg 60%
    12:00 +10°C° 0 mm 8 mps 739 mmHg 69%
    13:00 +7°C° 0.1 mm 8 mps 740 mmHg 67%
    14:00 +6°C° 0.1 mm 8 mps 742 mmHg 66%
    15:00 +4°C° 0.1 mm 7 mps 743 mmHg 65%
    16:00 +5°C° 0 mm 7 mps 744 mmHg 60%
    17:00 +5°C° 0 mm 6 mps 745 mmHg 54%
    18:00 +7°C° 0 mm 5 mps 747 mmHg 48%
    19:00 +6°C° 0 mm 4 mps 748 mmHg 52%
    20:00 +5°C° 0 mm 3 mps 748 mmHg 56%
    21:00 +5°C° 0 mm 2 mps 749 mmHg 59%
    22:00 +4°C° 0 mm 2 mps 749 mmHg 62%
    23:00 +4°C° 0 mm 2 mps 750 mmHg 65%

    Tomorrow, 27 May, Monday

    Time Temperature Precipitation Wind Pressure Humidity
    00:00 +3°C° 0 mm 2 mps 750 mmHg 69%
    01:00 +3°C° 0 mm 2 mps 751 mmHg 69%
    02:00 +3°C° 0 mm 2 mps 751 mmHg 69%
    03:00 +2°C° 0 mm 3 mps 751 mmHg 69%
    04:00 +2°C° 0 mm 3 mps 752 mmHg 67%
    05:00 +3°C° 0 mm 3 mps 752 mmHg 66%
    06:00 +4°C° 0 mm 4 mps 753 mmHg 64%
    07:00 +6°C° 0 mm 4 mps 753 mmHg 58%
    08:00 +8°C° 0 mm 5 mps 753 mmHg 52%
    09:00 +9°C° 0 mm 5 mps 753 mmHg 45%
    10:00 +10°C° 0 mm 5 mps 753 mmHg 43%
    11:00 +12°C° 0 mm 5 mps 753 mmHg 42%
    12:00 +12°C° 0 mm 5 mps 753 mmHg 40%
    13:00 +13°C° 0 mm 4 mps 753 mmHg 39%
    14:00 +13°C° 0 mm 4 mps 753 mmHg 38%
    15:00 +14°C° 0 mm 4 mps 753 mmHg 37%
    16:00 +14°C° 0 mm 3 mps 753 mmHg 39%
    17:00 +14°C° 0 mm 3 mps 753 mmHg 41%
    18:00 +15°C° 0 mm 2 mps 753 mmHg 43%
    19:00 +14°C° 0 mm 2 mps 753 mmHg 45%
    20:00 +13°C° 0 mm 2 mps 753 mmHg 48%
    21:00 +12°C° 0 mm 2 mps 753 mmHg 51%
    22:00 +10°C° 0 mm 2 mps 753 mmHg 54%
    23:00 +9°C° 0 mm 2 mps 753 mmHg 57%

    Day after tomorrow, 28 May, Tuesday

    Time Temperature Precipitation Wind Pressure Humidity
    00:00 +8°C° 0 mm 2 mps 753 mmHg 61%
    01:00 +8°C° 0 mm 3 mps 753 mmHg 61%
    02:00 +8°C° 0 mm 3 mps 753 mmHg 62%
    03:00 +8°C° 0 mm 3 mps 752 mmHg 63%
    04:00 +7°C° 0 mm 4 mps 752 mmHg 65%
    05:00 +8°C° 0 mm 4 mps 752 mmHg 66%
    06:00 +8°C° 0 mm 4 mps 752 mmHg 68%
    07:00 +8°C° 0.7 mm 5 mps 751 mmHg 72%
    08:00 +8°C° 0.7 mm 5 mps 751 mmHg 76%
    09:00 +9°C° 0.7 mm 5 mps 750 mmHg 80%
    10:00 +9°C° 1.6 mm 5 mps 750 mmHg 81%
    11:00 +10°C° 1.6 mm 4 mps 750 mmHg 83%
    12:00 +10°C° 1.6 mm 4 mps 749 mmHg 85%
    13:00 +13°C° 0.1 mm 4 mps 749 mmHg 73%
    14:00 +17°C° 0.1 mm 4 mps 749 mmHg 62%
    15:00 +20°C° 0.1 mm 4 mps 748 mmHg 50%
    16:00 +20°C° 0 mm 3 mps 748 mmHg 52%
    17:00 +20°C° 0 mm 3 mps 748 mmHg 54%
    18:00 +19°C° 0 mm 2 mps 748 mmHg 55%
    19:00 +18°C° 0 mm 2 mps 748 mmHg 60%
    20:00 +16°C° 0 mm 2 mps 748 mmHg 65%
    21:00 +15°C° 0 mm 2 mps 748 mmHg 69%
    22:00 +14°C° 0 mm 3 mps 748 mmHg 65%
    23:00 +14°C° 0 mm 3 mps 748 mmHg 61%

    29 May, Wednesday

    Time Temperature Precipitation Wind Pressure Humidity
    00:00 +13°C° 0 mm 3 mps 748 mmHg 57%
    01:00 +13°C° 0 mm 3 mps 747 mmHg 58%
    02:00 +12°C° 0 mm 3 mps 747 mmHg 59%
    03:00 +12°C° 0 mm 3 mps 747 mmHg 61%
    04:00 +12°C° 0 mm 3 mps 747 mmHg 62%
    05:00 +13°C° 0 mm 4 mps 747 mmHg 62%
    06:00 +13°C° 0 mm 4 mps 747 mmHg 63%
    07:00 +15°C° 0 mm 4 mps 747 mmHg 57%
    08:00 +18°C° 0 mm 4 mps 746 mmHg 51%
    09:00 +20°C° 0 mm 4 mps 746 mmHg 45%
    10:00 +22°C° 0 mm 5 mps 746 mmHg 40%
    11:00 +23°C° 0 mm 5 mps 745 mmHg 36%
    12:00 +26°C° 0 mm 6 mps 745 mmHg 31%
    13:00 +27°C° 0 mm 5 mps 744 mmHg 32%
    14:00 +27°C° 0 mm 5 mps 744 mmHg 33%
    15:00 +27°C° 0 mm 5 mps 743 mmHg 33%
    16:00 +27°C° 0 mm 5 mps 743 mmHg 36%
    17:00 +27°C° 0 mm 4 mps 742 mmHg 39%
    18:00 +26°C° 0 mm 3 mps 742 mmHg 42%
    19:00 +25°C° 0.1 mm 3 mps 742 mmHg 46%
    20:00 +22°C° 0.1 mm 4 mps 741 mmHg 50%
    21:00 +20°C° 0.1 mm 4 mps 741 mmHg 53%
    22:00 +19°C° 0.4 mm 4 mps 741 mmHg 62%
    23:00 +17°C° 0.4 mm 4 mps 740 mmHg 70%

    30 May, Thursday

    Time Temperature Precipitation Wind Pressure Humidity
    00:00 +15°C° 0.4 mm 4 mps 740 mmHg 79%
    01:00 +14°C° 0.1 mm 3 mps 739 mmHg 81%
    02:00 +14°C° 0.1 mm 3 mps 739 mmHg 84%
    03:00 +14°C° 0.1 mm 2 mps 739 mmHg 87%
    04:00 +14°C° 0 mm 2 mps 738 mmHg 84%
    05:00 +15°C° 0 mm 2 mps 738 mmHg 82%
    06:00 +16°C° 0 mm 2 mps 738 mmHg 79%
    07:00 +15°C° 0.8 mm 2 mps 737 mmHg 82%
    08:00 +15°C° 0.8 mm 2 mps 737 mmHg 85%
    09:00 +13°C° 0.8 mm 3 mps 737 mmHg 88%
    10:00 +14°C° 0.9 mm 3 mps 737 mmHg 88%
    11:00 +15°C° 0.9 mm 2 mps 736 mmHg 89%
    12:00 +15°C° 0.9 mm 2 mps 736 mmHg 90%
    13:00 +14°C° 1.6 mm 3 mps 736 mmHg 90%
    14:00 +14°C° 1.6 mm 4 mps 736 mmHg 90%
    15:00 +13°C° 1.6 mm 5 mps 736 mmHg 90%
    16:00 +13°C° 0.6 mm 4 mps 736 mmHg 89%
    17:00 +13°C° 0.6 mm 3 mps 737 mmHg 88%
    18:00 +13°C° 0.6 mm 3 mps 737 mmHg 87%
    19:00 +12°C° 0 mm 3 mps 737 mmHg 84%
    20:00 +12°C° 0 mm 4 mps 738 mmHg 82%
    21:00 +11°C° 0 mm 4 mps 738 mmHg 79%
    22:00 +10°C° 0 mm 4 mps 738 mmHg 79%
    23:00 +8°C° 0 mm 4 mps 739 mmHg 79%

    31 May, Friday

    Time Temperature Precipitation Wind Pressure Humidity
    00:00 +8°C° 0 mm 4 mps 739 mmHg 79%
    01:00 +7°C° 0 mm 4 mps 739 mmHg 79%
    02:00 +7°C° 0 mm 4 mps 740 mmHg 79%
    03:00 +6°C° 0 mm 4 mps 740 mmHg 78%
    04:00 +6°C° 0 mm 4 mps 740 mmHg 77%
    05:00 +6°C° 0 mm 4 mps 741 mmHg 76%
    06:00 +6°C° 0 mm 4 mps 741 mmHg 75%
    07:00 +7°C° 0 mm 5 mps 741 mmHg 71%
    08:00 +8°C° 0 mm 5 mps 741 mmHg 66%
    09:00 +9°C° 0 mm 5 mps 742 mmHg 62%
    10:00 +9°C° 0 mm 5 mps 742 mmHg 60%
    11:00 +10°C° 0 mm 5 mps 742 mmHg 58%
    12:00 +12°C° 0 mm 5 mps 742 mmHg 56%
    13:00 +12°C° 0 mm 5 mps 742 mmHg 55%
    14:00 +13°C° 0 mm 5 mps 742 mmHg 54%
    15:00 +13°C° 0 mm 5 mps 742 mmHg 54%
    16:00 +13°C° 0 mm 4 mps 742 mmHg 55%
    17:00 +13°C° 0 mm 3 mps 742 mmHg 57%
    18:00 +13°C° 0 mm 3 mps 742 mmHg 58%
    19:00 +12°C° 0 mm 3 mps 742 mmHg 62%
    20:00 +12°C° 0 mm 2 mps 742 mmHg 65%
    21:00 +10°C° 0 mm 2 mps 742 mmHg 69%
    22:00 +10°C° 0 mm 2 mps 742 mmHg 68%
    23:00 +10°C° 0 mm 2 mps 742 mmHg 67%
    Show more